Location: Houhaj�rvi
(61.2667°N, 23.0167°E)
Time: 18:26:29
(UTC+00:00)

H-2A R/B - Pass Details

Date: 13 December 2019
Orbit: 733 x 837 km, 98.2° (Epoch: 16 January)

Event Time Altitude Azimuth Distance (km) Brightness Sun altitude
Exits shadow 14:39:26 10° 44° (NE) 2,250 3.8 -8.8°
Maximum altitude 14:40:48 12° 28° (NNE) 2,168 3.8 -9.0°
Drops below altitude 10° 14:42:25 10° 9° (N) 2,270 4.1 -9.1°
Sets 14:46:18 0° 338° (NNW) 3,185 5.1 -9.5°
